Погода в Ломбок-Сенггиги

Индонезия     8°29′18″S   116°02′30″E
темп.,
°C
ветер,
м/с
пор.,
м/с
влажн.,
%
обл.,
%
осадки,
мм/ч
давл.,
гПа
погр.,
м
2 марта, вт
вт223:00+28с457987 0.1 1011445
02:00+28с567883 0.6 1009602
05:00+27с55771 0.5 1008492
08:00+27ссв56780 0.5 1010499
11:00+28с67790 0.1 1010462
14:00+28с78790 0.4 1008584
17:00+28с677711 0.3 1007536
20:00+28ссв457710 0.8 1010257
3 марта, ср
ср323:00+28ссв347338 0.2 1012188
02:00+28св347219 0.2 1009267
05:00+27св33740 0.1 1009335
08:00+28ссв34740 0.2 1011470
11:00+28с557716 0.0 1011395
14:00+28ссз557724 0.0 1009430
17:00+28с457643 0.1 1008491
20:00+28ссв337957 0.3 1010135
4 марта, чт
чт423:00+28с457933 0.7 1012340
02:00+28с677750 1.3 1010597
05:00+27ссз6781100 0.0 1010606
08:00+27ссв458083 0.0 1011420
11:00+28с337742 0.0 1011256
14:00+27ююз237171 0.0 1009265
17:00+29ююз4571100 0.3 1008713
20:00+28ю3476100 1.7 1010380
5 марта, пт
пт523:00+28юз4675100 0.8 1011568
02:00+28з2372100 1.1 1010339
05:00+27зюз227298 0.1 1009283
08:00+25ююз669099 1.8 1011445
11:00+25ююз3485100 4.8 1012380
14:00+26ю4582100 4.9 1009307
17:00+27ю568092 0.0 1008600
20:00+27ю457696 0.1 1010680
6 марта, сб
сб623:00+27ююв3375100 0.0 1010392
02:00+26вюв117399 0.0 1009198
05:00+26вюв2272100 0.0 1009159
08:00+27вюв1168100 0.0 1010138
11:00+27сз2272100 0.0 1010179
14:00+28ссз457355 0.0 1008404
17:00+28с567360 0.3 1008486
20:00+28ссв447580 0.7 1010258